Regional Weather Roundup
Issued by NWS

Home | Current Version | Previous Version | Text Only | Print | Product List | Glossary Off
Versions: 1 2 3 4 5 6 7 8 9 10 11 12 13 14 15 16 17 18 19 20 21 22 23 24 25 26 27 28 29 30 31 32 33 34 35 36 37 38 39 40 41 42 43 44 45 46 47 48 49 50

000
ASUS44 KMEG 230900
RWRTN
TENNESSEE HOURLY STATE WEATHER ROUNDUP
NATIONAL WEATHER SERVICE MEMPHIS TN
400 AM CDT WED APR 23 2014

TNZ002-004-019-021-049-052-054-088>092-231000-
WEST TENNESSEE

CITY           SKY/WX    TMP DP  RH WIND       PRES   REMARKS
MEMPHIS INTL   CLEAR     57  41  55 NE10G20   30.00R
NWS MEMPHIS      N/A     49 N/A N/A MISG        N/A
JACKSON        CLEAR     44  38  79 CALM      29.99R
DYERSBURG      CLEAR     48  36  61 CALM      30.02R
UNION CITY     CLEAR     48  39  71 NE5       30.00R
LEXINGTON      CLEAR     46  39  76 N5        29.97R
$$

TNZ008-025-027-028-033-062-065-066-231000-
NORTH MIDDLE TENNESSEE

CITY           SKY/WX    TMP DP  RH WIND       PRES   REMARKS
NASHVILLE      CLEAR     50  39  66 N7        29.98R
CLARKSVILLE    CLEAR     46  39  76 NW3       30.00R
COOKEVILLE     CLEAR     39  36  87 CALM      29.96R
CROSSVILLE     CLEAR     48  28  46 N6        29.95R
$$

TNZ061-075-076-078-094-096-097-231000-
SOUTH MIDDLE TENNESSEE

CITY           SKY/WX    TMP DP  RH WIND       PRES   REMARKS
TULLAHOMA      CLEAR     45  37  76 CALM      29.96R
WINCHESTER     CLEAR     43  43 100 CALM      29.95S
MCMINNVILLE    CLEAR     50  37  62 N5        29.95R
COLUMBIA       CLEAR     45  45 100 CALM      29.96R
$$

TNZ017-018-042-046-047-231000-
NORTHEAST TENNESSEE

CITY           SKY/WX    TMP DP  RH WIND       PRES   REMARKS
TRI CITIES     CLEAR     50  29  44 NW7       29.89R
ELIZABETHTON   SUNNY     46  34  61 CALM      29.88R
$$

TNZ012-013-036-069-073-074-231000-
CENTRAL EAST TENNESSEE

CITY           SKY/WX    TMP DP  RH WIND       PRES   REMARKS
KNOXVILLE      CLEAR     52  32  46 N7        29.92R
OAK RIDGE      CLEAR     53  31  42 NE5       29.95R
$$

TNZ083-085-099-231000-
SOUTHEAST TENNESSEE

CITY           SKY/WX    TMP DP  RH WIND       PRES   REMARKS
CHATTANOOGA    CLEAR     53  43  68 N5        29.92R
$$

SKY/WX REPORTED AS FAIR MEANS FEW OR NO CLOUDS BELOW
12 THOUSAND FEET.




USA.gov is the U.S. government's official web portal to all federal, state and local government web resources and services.